Temp
-7 -7 -8 -8 -9 -10 -10 -10 -10 -11 -11 -11 -11 -10 -10 -10 -11 -11 -11 -12 -11 -11 -11 -11 -11 -11 -11 -11 -10 -11 -11 -11 -12 -11 -11 -11 -10 -10 -10 -9 -9 -9 -10 -10
-7 -7 -7 -8 -8 -9 -10 -10 -11 -11 -11 -11 -11 -11 -10 -10 -10 -11 -11 -11 -11 -11 -10 -10 -10 -11 -11 -11 -11 -11 -11 -11 -12 -12 -11 -11 -11 -10 -10 -10 -10 -10 -10 -10
-7 -7 -8 -8 -8 -9 -10 -10 -11 -11 -11 -11 -11 -11 -10 -10 -10 -11 -11 -11 -11 -12 -11 -11 -10 -10 -11 -11 -10 -10 -10 -10 -11 -11 -11 -11 -11 -11 -10 -11 -11 -11 -11 -11
-7 -7 -7 -7 -8 -8 -9 -9 -9 -10 -10 -10 -10 -10 -10 -10 -10 -11 -11 -11 -11 -11 -11 -10 -11 -11 -12 -11 -10 -9 -9 -10 -10 -10 -10 -11 -11 -11 -10 -10 -10 -11 -11 -12
-7 -7 -7 -8 -8 -8 -9 -10 -10 -10 -11 -11 -11 -11 -11 -11 -11 -11 -11 -11 -11 -11 -10 -11 -11 -11 -11 -11 -10 -10 -11 -11 -10 -10 -10 -11 -11 -11 -11 -11 -11 -11 -12 -12
-8 -7 -8 -8 -8 -8 -9 -9 -9 -9 -10 -11 -11 -11 -11 -11 -11 -11 -10 -10 -11 -11 -11 -11 -10 -11 -11 -11 -11 -12 -12 -12 -11 -11 -11 -10 -10 -11 -11 -11 -12 -12 -12 -12
-8 -8 -8 -8 -8 -8 -9 -9 -9 -9 -10 -10 -10 -11 -11 -11 -11 -11 -11 -11 -11 -11 -12 -12 -12 -11 -11 -11 -11 -11 -11 -11 -11 -11 -11 -11 -11 -11 -12 -12 -12 -12 -12 -12
-8 -8 -9 -9 -9 -9 -9 -9 -9 -9 -9 -10 -10 -10 -10 -11 -11 -11 -11 -11 -11 -12 -13 -12 -12 -11 -11 -11 -11 -11 -11 -10 -10 -10 -11 -11 -11 -11 -11 -11 -12 -12 -13 -13
-8 -9 -9 -8 -8 -8 -9 -9 -9 -9 -9 -9 -9 -10 -10 -11 -11 -11 -11 -11 -12 -12 -12 -12 -12 -12 -12 -11 -11 -11 -11 -11 -10 -10 -10 -11 -11 -11 -11 -12 -12 -13 -13 -13
-8 -8 -8 -8 -8 -8 -9 -9 -9 -9 -9 -10 -10 -10 -11 -10 -11 -11 -12 -12 -12 -12 -12 -12 -12 -12 -12 -12 -12 -12 -11 -11 -12 -12 -12 -12 -12 -12 -12 -13 -13 -13 -14 -15
-8 -8 -9 -8 -8 -8 -8 -9 -9 -9 -10 -10 -10 -10 -11 -11 -11 -11 -12 -12 -12 -12 -12 -13 -13 -13 -13 -13 -12 -12 -12 -12 -12 -12 -13 -13 -13 -14 -14 -14 -14 -14 -14 -15
-8 -9 -8 -9 -9 -8 -8 -8 -9 -9 -9 -10 -10 -10 -10 -11 -11 -12 -11 -12 -12 -12 -12 -13 -13 -13 -13 -12 -13 -13 -13 -12 -12 -12 -13 -14 -14 -14 -14 -15 -15 -16 -15 -16
-9 -9 -9 -9 -9 -9 -9 -9 -9 -9 -9 -10 -10 -10 -11 -11 -11 -11 -11 -12 -12 -13 -13 -13 -13 -13 -13 -13 -13 -13 -13 -13 -14 -14 -14 -14 -14 -15 -15 -15 -15 -15 -15 -16
-9 -9 -9 -9 -9 -9 -9 -10 -10 -10 -10 -10 -10 -10 -11 -11 -11 -12 -12 -13 -13 -13 -13 -13 -13 -13 -13 -13 -14 -14 -14 -14 -14 -15 -15 -15 -15 -15 -15 -15 -15 -15 -15 -16
-9 -9 -9 -9 -9 -9 -10 -10 -10 -10 -10 -10 -10 -10 -11 -11 -12 -12 -13 -13 -13 -13 -13 -13 -13 -13 -13 -13 -14 -15 -15 -16 -15 -16 -15 -15 -15 -15 -15 -15 -15 -15 -16 -16
-9 -9 -9 -9 -9 -9 -10 -10 -10 -10 -10 -10 -10 -11 -11 -12 -12 -12 -12 -12 -12 -12 -13 -13 -13 -13 -14 -15 -15 -15 -15 -15 -15 -16 -16 -16 -16 -16 -16 -16 -16 -16 -16 -16
-9 -9 -9 -10 -10 -9 -10 -10 -10 -10 -10 -11 -11 -11 -11 -12 -12 -12 -12 -12 -13 -13 -13 -14 -14 -15 -15 -16 -16 -16 -16 -16 -16 -16 -16 -16 -17 -16 -16 -16 -16 -16 -16 -17
-9 -10 -10 -10 -10 -10 -10 -10 -10 -10 -10 -11 -11 -12 -12 -12 -12 -12 -12 -13 -13 -13 -13 -14 -15 -16 -16 -17 -16 -17 -17 -17 -17 -17 -17 -17 -17 -17 -16 -17 -17 -17 -17 -17
-10 -10 -10 -10 -10 -10 -10 -10 -11 -11 -11 -11 -11 -11 -12 -12 -12 -13 -13 -13 -13 -14 -14 -15 -16 -17 -17 -17 -17 -17 -17 -17 -17 -17 -17 -17 -17 -17 -17 -17 -17 -17 -17 -17
-10 -10 -10 -10 -10 -10 -10 -10 -11 -10 -10 -11 -11 -12 -12 -12 -12 -12 -12 -13 -13 -14 -15 -16 -16 -17 -17 -17 -17 -17 -17 -17 -17 -17 -17 -17 -17 -17 -17 -17 -17 -18 -18 -18
-10 -10 -10 -10 -10 -10 -11 -10 -11 -11 -11 -12 -12 -12 -12 -12 -12 -12 -12 -13 -14 -15 -16 -16 -17 -17 -17 -17 -17 -17 -17 -17 -17 -17 -17 -17 -17 -17 -17 -17 -17 -18 -18 -18
-11 -11 -11 -11 -11 -11 -11 -11 -11 -11 -12 -12 -12 -12 -12 -12 -12 -13 -13 -14 -15 -15 -16 -17 -17 -17 -17 -17 -17 -16 -17 -17 -17 -17 -17 -17 -17 -17 -18 -18 -18 -18 -18 -18
-11 -10 -10 -10 -11 -11 -11 -12 -11 -12 -12 -12 -12 -11 -12 -12 -13 -13 -13 -15 -15 -16 -17 -17 -17 -16 -17 -16 -16 -16 -17 -17 -17 -17 -17 -17 -18 -18 -18 -18 -18 -18 -18 -19
-11 -11 -11 -11 -11 -11 -11 -11 -12 -11 -11 -11 -12 -12 -12 -13 -13 -13 -14 -15 -15 -16 -16 -16 -16 -16 -16 -16 -16 -16 -16 -16 -17 -17 -17 -17 -18 -18 -18 -18 -18 -19 -19 -19
-11 -11 -11 -11 -11 -11 -11 -11 -11 -11 -11 -12 -12 -12 -13 -13 -13 -13 -14 -15 -15 -15 -15 -15 -16 -15 -16 -16 -16 -16 -16 -17 -17 -17 -17 -17 -17 -18 -18 -18 -19 -19 -19 -19
-11 -11 -11 -11 -11 -11 -11 -11 -11 -11 -12 -12 -12 -12 -13 -13 -13 -14 -14 -14 -14 -14 -15 -15 -15 -15 -15 -15 -15 -16 -16 -17 -17 -16 -17 -17 -17 -18 -18 -18 -18 -19 -19 -19
Height
5882 5881 5880 5879 5879 5880 5880 5879 5880 5878 5878 5878 5876 5875 5875 5872 5871 5869 5868 5865 5863 5858 5854 5852 5850 5845 5842 5839 5835 5832 5827 5822 5818 5815 5812 5806 5803 5801 5796 5795 5791 5785 5787 5783
5881 5880 5880 5879 5879 5879 5878 5879 5877 5876 5876 5877 5876 5875 5875 5874 5871 5869 5867 5865 5864 5860 5856 5852 5847 5841 5839 5836 5831 5826 5822 5817 5811 5806 5803 5799 5793 5790 5786 5781 5778 5778 5772 5772
5879 5880 5880 5878 5878 5878 5876 5876 5876 5874 5875 5874 5874 5873 5872 5872 5871 5870 5867 5863 5862 5860 5855 5850 5847 5840 5834 5828 5825 5819 5813 5807 5801 5795 5791 5786 5781 5777 5773 5770 5767 5764 5761 5759
5878 5878 5879 5878 5878 5877 5876 5875 5875 5873 5873 5872 5871 5872 5872 5870 5869 5868 5866 5862 5861 5859 5853 5849 5844 5838 5829 5823 5815 5812 5806 5800 5792 5783 5776 5772 5769 5766 5762 5758 5755 5753 5753 5747
5878 5878 5878 5877 5877 5876 5876 5875 5873 5873 5872 5870 5868 5868 5869 5867 5865 5864 5861 5859 5857 5854 5849 5844 5836 5828 5821 5815 5810 5806 5798 5790 5783 5777 5769 5761 5757 5754 5751 5746 5742 5739 5736 5736
5877 5877 5876 5877 5877 5876 5875 5873 5872 5871 5870 5869 5867 5866 5866 5864 5861 5860 5858 5856 5851 5847 5841 5835 5827 5822 5817 5812 5805 5797 5790 5780 5772 5766 5759 5752 5744 5740 5738 5735 5731 5726 5722 5720
5876 5875 5875 5875 5876 5875 5874 5872 5871 5871 5868 5867 5865 5862 5860 5858 5856 5855 5853 5848 5843 5837 5831 5825 5820 5817 5813 5805 5798 5789 5782 5775 5768 5760 5751 5745 5740 5732 5725 5721 5717 5713 5710 5705
5874 5874 5874 5874 5874 5874 5872 5871 5870 5869 5867 5865 5861 5858 5856 5852 5849 5847 5842 5837 5832 5827 5821 5818 5814 5809 5804 5799 5792 5783 5774 5765 5757 5751 5745 5737 5729 5722 5715 5708 5704 5700 5696 5693
5872 5872 5872 5872 5872 5872 5870 5870 5868 5866 5864 5861 5857 5854 5851 5849 5845 5839 5833 5827 5822 5818 5812 5807 5800 5793 5788 5784 5779 5773 5766 5758 5750 5742 5734 5726 5717 5709 5700 5693 5688 5683 5679 5677
5870 5870 5870 5870 5870 5870 5869 5869 5868 5864 5862 5858 5854 5850 5844 5840 5836 5830 5824 5819 5813 5808 5803 5795 5788 5782 5776 5770 5762 5755 5750 5744 5737 5730 5722 5714 5706 5697 5689 5681 5674 5669 5664 5658
5868 5870 5870 5868 5868 5868 5868 5866 5865 5861 5858 5854 5850 5848 5842 5834 5829 5824 5819 5813 5808 5801 5793 5787 5781 5774 5766 5759 5750 5743 5736 5729 5722 5715 5707 5699 5691 5684 5678 5671 5664 5657 5652 5648
5866 5866 5867 5865 5865 5866 5865 5864 5861 5858 5855 5851 5847 5844 5837 5832 5826 5820 5816 5810 5804 5797 5790 5784 5776 5768 5760 5752 5744 5736 5728 5719 5711 5704 5696 5689 5682 5675 5668 5661 5654 5647 5641 5638
5863 5863 5862 5861 5864 5863 5863 5861 5858 5853 5850 5846 5842 5838 5832 5827 5823 5818 5813 5807 5800 5793 5786 5778 5771 5763 5754 5746 5738 5729 5719 5711 5702 5695 5688 5682 5674 5667 5660 5653 5647 5640 5633 5628
5860 5859 5858 5859 5860 5860 5858 5857 5853 5850 5846 5843 5839 5834 5829 5825 5820 5815 5808 5802 5796 5789 5781 5772 5763 5754 5746 5737 5729 5719 5710 5701 5694 5687 5680 5673 5667 5659 5651 5644 5638 5632 5625 5619
5857 5856 5856 5856 5856 5857 5855 5853 5850 5846 5843 5840 5836 5831 5827 5822 5816 5810 5805 5799 5791 5782 5773 5764 5754 5745 5736 5726 5716 5707 5700 5694 5686 5680 5672 5665 5659 5652 5644 5637 5632 5626 5620 5615
5853 5853 5853 5853 5853 5853 5851 5849 5846 5844 5840 5836 5831 5827 5822 5817 5811 5804 5798 5790 5782 5773 5762 5752 5743 5732 5723 5715 5708 5700 5694 5686 5680 5673 5666 5659 5653 5646 5639 5634 5628 5622 5617 5611
5851 5850 5850 5851 5849 5849 5848 5845 5842 5839 5835 5831 5827 5823 5818 5812 5805 5796 5789 5780 5769 5760 5750 5740 5730 5721 5713 5706 5700 5694 5687 5682 5675 5668 5661 5654 5648 5642 5635 5630 5625 5619 5613 5607
5849 5849 5849 5848 5847 5846 5844 5842 5839 5836 5832 5826 5822 5816 5811 5806 5798 5786 5777 5768 5759 5749 5739 5729 5720 5713 5706 5700 5694 5689 5683 5678 5672 5664 5657 5651 5646 5639 5633 5627 5622 5616 5610 5604
5847 5848 5847 5847 5845 5843 5841 5839 5836 5833 5830 5823 5818 5812 5806 5799 5792 5783 5773 5762 5752 5741 5730 5720 5711 5704 5697 5693 5688 5683 5679 5674 5668 5661 5654 5648 5643 5637 5631 5625 5619 5613 5607 5601
5846 5846 5846 5845 5843 5841 5839 5836 5833 5829 5825 5819 5814 5808 5801 5794 5789 5779 5767 5755 5743 5730 5717 5708 5700 5693 5691 5687 5683 5680 5676 5671 5666 5660 5654 5648 5641 5634 5628 5621 5615 5609 5603 5598
5842 5843 5843 5842 5841 5839 5836 5831 5827 5824 5822 5814 5809 5803 5798 5790 5778 5768 5757 5744 5730 5717 5705 5698 5691 5685 5685 5682 5681 5678 5674 5670 5666 5660 5654 5647 5639 5632 5625 5619 5612 5607 5601 5596
5840 5840 5840 5839 5839 5838 5834 5830 5825 5821 5816 5811 5806 5800 5791 5782 5773 5762 5750 5736 5721 5706 5693 5685 5682 5681 5681 5681 5680 5677 5674 5670 5666 5660 5654 5647 5639 5632 5624 5617 5611 5606 5601 5596
5839 5838 5838 5838 5836 5834 5830 5826 5822 5819 5814 5808 5802 5795 5786 5777 5769 5757 5744 5730 5715 5697 5684 5678 5679 5681 5683 5682 5681 5679 5676 5672 5666 5661 5655 5647 5639 5631 5625 5619 5613 5608 5603 5598
5835 5835 5834 5834 5832 5830 5827 5824 5820 5815 5810 5804 5798 5791 5783 5774 5764 5752 5741 5730 5714 5697 5687 5684 5684 5686 5686 5686 5685 5682 5679 5674 5669 5663 5655 5647 5640 5634 5629 5623 5617 5612 5606 5602
5832 5831 5831 5830 5829 5827 5824 5820 5816 5811 5806 5800 5794 5787 5779 5771 5761 5752 5740 5731 5721 5710 5701 5696 5695 5694 5693 5691 5689 5687 5682 5677 5671 5665 5657 5650 5644 5639 5633 5627 5622 5616 5611 5607
5829 5828 5828 5827 5825 5824 5820 5816 5812 5807 5803 5798 5792 5784 5776 5770 5760 5750 5741 5734 5726 5720 5713 5709 5706 5703 5700 5698 5695 5691 5686 5681 5675 5669 5661 5655 5649 5644 5637 5632 5626 5622 5617 5613
Wind_Speed
7 7 9 11 12 13 15 12 11 12 10 9 10 13 17 17 18 23 28 27 19 16 14 17 12 11 17 26 32 32 32 34 36 39 41 46 49 49 51 47 46 50 44 43
6 7 9 10 12 15 18 14 9 12 13 12 15 20 20 20 22 28 31 22 15 14 12 14 14 7 16 25 30 34 38 40 41 44 46 49 51 52 53 53 51 51 47 45
5 3 4 6 5 7 14 17 17 20 18 20 22 24 25 24 24 25 20 30 14 16 20 23 21 22 26 32 38 39 40 45 46 48 49 51 52 53 52 51 51 50 50 48
3 5 8 7 4 6 8 11 13 17 18 21 21 18 15 18 19 21 24 22 17 20 22 24 21 27 29 37 42 43 45 50 49 51 52 50 49 50 51 51 48 47 44 44
5 7 7 8 7 7 7 9 10 12 13 16 16 18 18 21 22 22 18 19 23 27 29 27 31 32 36 40 45 46 43 45 46 47 48 51 50 48 48 49 49 50 49 45
6 7 7 9 8 7 8 8 8 11 12 15 19 25 23 25 25 21 22 25 29 29 23 29 31 32 34 35 39 41 41 44 48 49 52 52 54 55 53 51 49 49 50 49
7 8 9 6 6 7 7 8 10 11 13 16 18 22 23 24 24 24 25 26 26 24 28 31 31 32 29 33 35 37 38 40 41 43 46 49 52 54 55 53 54 53 52 53
10 9 6 4 4 6 6 7 8 9 12 16 19 22 23 24 27 29 27 28 29 28 27 31 32 31 33 34 36 39 41 43 45 46 48 51 53 54 56 58 57 55 54 52
12 9 8 7 6 6 7 11 12 15 16 20 24 26 25 25 26 28 31 32 29 30 35 38 41 45 46 46 45 43 43 45 47 50 52 55 58 60 62 62 61 58 55 53
15 14 11 10 8 7 9 11 14 17 19 21 25 26 30 31 32 32 32 32 36 38 40 44 49 52 54 55 56 55 55 54 54 53 55 57 58 57 53 49 49 48 48 46
17 14 14 12 9 9 12 15 17 20 23 24 26 27 28 33 32 31 33 35 38 42 46 51 54 57 59 58 59 60 60 60 60 60 59 51 45 46 49 49 50 49 46 41
17 18 15 16 13 11 13 15 18 21 23 24 27 28 31 30 30 32 34 36 40 44 49 52 55 57 58 59 59 59 60 62 61 59 53 45 45 48 47 50 47 45 43 39
16 17 18 18 15 14 15 18 19 22 25 27 30 33 32 31 32 32 34 38 43 47 50 53 54 56 57 56 56 57 58 58 53 47 43 44 46 47 48 41 40 40 38 37
17 18 19 20 17 16 17 18 19 21 25 28 31 31 31 33 32 33 37 41 45 48 50 53 55 55 56 56 55 56 52 46 43 42 43 45 45 36 36 38 34 36 34 30
18 18 18 18 16 17 16 16 17 20 25 27 29 31 33 33 34 37 40 44 47 50 52 53 55 56 54 53 52 46 43 41 42 43 41 42 33 35 34 31 31 31 26 27
14 15 15 16 16 16 17 17 18 19 22 25 29 32 33 33 37 41 44 49 51 53 57 57 56 53 50 49 46 46 44 42 42 38 41 33 34 34 27 24 25 25 27 25
13 13 13 15 17 17 17 19 20 23 26 28 29 30 32 36 39 45 48 52 56 58 56 52 49 48 48 47 44 40 39 40 39 38 31 31 29 30 24 23 27 28 26 25
12 11 13 15 15 15 18 19 21 23 26 29 29 32 35 38 42 49 54 57 56 54 51 51 50 48 45 41 39 36 37 37 36 30 31 29 27 28 27 27 25 25 26 26
11 10 12 14 15 17 20 21 21 22 23 28 30 34 37 41 44 49 52 53 53 52 52 51 47 43 41 35 35 34 34 31 29 28 25 24 27 27 27 27 27 27 28 27
8 9 10 11 14 17 19 20 23 25 26 29 32 35 39 42 47 50 53 53 53 55 54 48 44 37 33 29 30 29 28 24 25 23 24 27 28 31 32 32 31 29 25 24
8 8 10 12 14 17 20 24 26 28 29 32 34 36 39 46 53 54 54 55 56 55 54 47 39 32 25 23 24 25 21 21 21 25 27 29 33 34 31 30 29 26 26 26
8 9 10 12 15 16 19 21 24 27 30 32 32 36 43 50 50 49 52 53 55 57 50 36 26 21 16 18 18 19 19 20 24 28 29 32 32 31 30 27 26 24 24 23
9 10 11 13 15 17 19 21 24 26 30 31 33 40 47 48 45 47 52 50 57 52 37 22 15 13 15 13 17 17 21 25 29 31 30 32 30 28 25 25 26 27 25 25
9 12 12 13 15 17 19 21 22 27 30 31 36 43 44 41 45 49 46 46 55 43 29 23 20 18 16 19 19 22 26 29 29 30 34 32 30 28 28 28 28 27 26 25
11 13 13 15 16 18 20 21 22 29 31 32 38 42 41 41 43 45 41 41 44 36 31 27 23 23 23 24 24 26 28 28 31 34 33 32 30 30 30 30 29 28 26 24
13 13 13 14 16 18 19 22 24 31 29 32 38 40 38 41 41 42 39 37 37 32 30 29 29 29 27 26 26 28 29 30 33 34 33 33 31 30 31 31 30 28 25 24
Wind_Direction
289 270 261 266 256 250 269 263 257 240 263 273 297 322 322 331 329 326 328 327 318 324 310 297 306 343 342 332 320 313 305 297 293 290 289 291 292 291 295 294 297 300 302 300
252 282 279 268 273 269 267 241 251 249 249 263 287 305 316 311 316 318 319 310 311 319 315 306 300 296 311 309 306 304 303 298 295 294 294 292 292 295 297 299 301 300 305 306
253 286 284 265 275 253 252 257 254 266 271 279 285 291 302 307 300 305 309 300 313 295 302 310 308 305 293 297 306 300 300 299 296 296 297 297 298 299 300 299 299 301 303 304
274 264 254 286 308 318 309 305 280 278 293 288 287 293 291 292 292 297 300 303 282 310 307 318 298 303 283 289 299 301 298 297 300 302 301 300 299 300 302 303 304 302 300 302
247 255 273 282 294 309 319 292 305 302 313 306 305 301 298 299 300 306 297 291 296 305 305 310 298 303 301 300 302 301 304 305 303 301 303 305 306 305 305 306 306 306 306 305
247 277 280 293 290 323 336 315 312 315 302 289 287 289 292 292 295 303 300 302 306 303 311 302 303 305 307 312 313 313 311 309 309 309 310 310 310 311 309 307 305 304 304 303
234 267 290 333 314 341 336 315 310 302 304 299 293 296 298 300 302 312 316 314 311 310 313 309 311 310 316 321 317 317 311 308 306 307 307 307 307 308 308 309 308 307 305 303
243 265 279 314 320 319 312 321 301 306 302 306 315 320 325 323 321 323 321 316 316 316 311 310 314 322 327 324 320 316 311 308 308 310 311 310 308 306 304 304 305 304 302 300
241 241 257 274 289 324 335 324 313 318 325 324 325 324 326 324 324 320 315 318 321 318 323 326 330 331 329 328 326 322 318 316 315 315 314 313 311 310 309 307 306 303 299 294
243 253 270 281 300 326 318 315 313 312 318 321 325 327 327 325 322 322 324 327 329 328 327 329 330 328 329 330 328 325 323 322 322 319 316 314 311 311 312 311 309 309 309 309
252 261 279 282 301 308 304 305 316 320 322 324 323 325 324 324 324 323 327 328 327 328 329 329 328 328 328 327 325 324 324 322 321 320 319 319 317 316 315 314 313 308 306 305
265 271 270 277 292 301 304 309 317 315 317 317 318 327 326 324 323 325 326 325 326 326 326 326 324 324 323 323 322 322 320 317 317 316 318 318 316 315 315 313 317 314 310 305
263 269 274 278 292 304 308 312 312 316 317 322 323 323 324 324 321 321 323 324 325 324 323 320 319 319 321 320 319 317 313 312 314 317 315 315 315 314 310 311 312 312 309 303
261 269 275 284 295 302 307 307 314 313 315 319 320 322 319 318 319 322 325 324 322 320 318 319 320 319 318 318 313 311 312 314 317 316 314 313 316 316 311 313 319 322 319 319
269 271 279 287 297 300 296 303 304 309 318 323 322 319 320 322 322 320 319 320 318 320 320 319 319 320 317 313 313 314 315 316 316 318 315 317 318 324 325 319 330 333 330 324
280 277 282 290 291 291 298 298 302 316 321 322 321 322 323 319 317 318 320 321 320 320 324 323 322 318 315 314 314 315 318 317 323 320 321 324 328 333 334 331 340 349 344 341
286 288 292 289 290 294 297 302 312 320 322 322 320 321 319 319 320 321 322 322 324 326 324 323 320 316 315 316 316 319 318 322 325 328 328 330 333 343 344 339 341 341 347 349
280 283 288 284 286 295 300 307 314 320 321 317 321 322 323 326 327 325 327 328 326 326 324 319 316 316 315 317 319 320 321 325 330 332 332 337 337 337 343 344 348 345 343 343
272 278 278 283 294 299 304 313 315 317 316 320 323 325 327 328 330 327 326 327 328 324 320 317 315 313 313 318 316 320 326 331 336 339 341 351 347 345 345 344 343 340 340 339
260 264 270 283 295 298 310 313 316 322 325 325 328 330 330 328 325 328 332 333 330 325 321 324 322 316 321 322 321 331 335 343 344 351 360 349 346 348 347 344 343 346 351 356
259 270 288 303 307 311 316 323 324 325 330 334 334 329 328 329 333 334 338 337 331 330 326 324 320 321 327 327 336 339 348 349 356 5 357 355 352 350 351 349 348 351 350 355
276 284 294 307 312 314 317 317 322 329 334 332 328 329 334 338 338 341 342 339 337 333 328 326 320 336 337 348 348 355 2 6 7 3 359 356 354 351 349 357 5 13 14 11
266 279 294 307 315 320 318 322 328 330 331 331 333 338 339 339 346 348 347 346 347 344 344 346 358 11 27 12 16 23 15 14 9 4 2 359 360 6 12 20 20 20 20 18
270 285 302 315 321 318 317 328 332 334 335 334 339 340 342 348 353 353 351 356 360 5 20 33 45 56 45 43 42 30 21 14 10 10 10 13 22 22 29 29 26 22 25 23
288 296 309 315 316 315 325 330 333 339 337 339 341 343 348 355 358 356 359 3 10 23 41 51 54 54 58 52 41 30 22 21 20 14 22 27 29 29 28 27 25 24 29 37
287 295 306 309 312 323 331 332 337 339 337 342 343 346 355 357 1 3 10 17 20 26 40 49 59 61 53 44 36 31 30 29 22 20 28 29 30 28 27 26 28 32 38 42